SB KEPS @ AMSAT $ORB13003.O Orbital Elements 13003.OSCAR
HR AMSAT ORBITAL ELEMENTS FOR OSCAR SATELLITES FROM WA5QGD FORT WORTH,TX January 3, 2013 BID: ORB13003.O TO ALL RADIO AMATEURS BT
Satellite: AO-07 Catalog number: 07530 Epoch time: 13003.56183891 Element set: 573 Inclination: 101.4185 deg RA of node: 359.1374 deg Eccentricity: 0.0011567 Arg of perigee: 249.8411 deg Mean anomaly: 223.6481 deg Mean motion: 12.53593497 rev/day Decay rate: -5.0e-08 rev/day^2 Epoch rev: 74515 Checksum: 300
Satellite: FO-29 Catalog number: 24278 Epoch time: 13003.29258107 Element set: 17 Inclination: 098.5786 deg RA of node: 083.7491 deg Eccentricity: 0.0349799 Arg of perigee: 231.2293 deg Mean anomaly: 125.7111 deg Mean motion: 13.52994083 rev/day Decay rate: -2.1e-07 rev/day^2 Epoch rev: 80901 Checksum: 316
Satellite: SO-33 Catalog number: 25509 Epoch time: 13003.18461191 Element set: 403 Inclination: 031.4329 deg RA of node: 281.7387 deg Eccentricity: 0.0351830 Arg of perigee: 153.6057 deg Mean anomaly: 328.2212 deg Mean motion: 14.28943948 rev/day Decay rate: 4.94e-06 rev/day^2 Epoch rev: 74127 Checksum: 297
Satellite: RS-22 Catalog number: 27939 Epoch time: 13003.57544695 Element set: 51 Inclination: 097.7974 deg RA of node: 200.0104 deg Eccentricity: 0.0013489 Arg of perigee: 354.3242 deg Mean anomaly: 005.7802 deg Mean motion: 14.64275684 rev/day Decay rate: 4.01e-06 rev/day^2 Epoch rev: 49520 Checksum: 294
Satellite: VO-52 Catalog number: 28650 Epoch time: 13003.62083576 Element set: 307 Inclination: 097.5791 deg RA of node: 030.6184 deg Eccentricity: 0.0027342 Arg of perigee: 101.5025 deg Mean anomaly: 258.9306 deg Mean motion: 14.83477670 rev/day Decay rate: 7.04e-06 rev/day^2 Epoch rev: 41468 Checksum: 298
Satellite: HO-68 Catalog number: 36122 Epoch time: 13003.79865677 Element set: 158 Inclination: 100.3330 deg RA of node: 064.8448 deg Eccentricity: 0.0007693 Arg of perigee: 013.3348 deg Mean anomaly: 346.7972 deg Mean motion: 13.16301197 rev/day Decay rate: -4.4e-07 rev/day^2 Epoch rev: 14678 Checksum: 311
/EX SB KEPS @ AMSAT $ORB13003.D Orbital Elements 13003.MICROS
HR AMSAT ORBITAL ELEMENTS FOR THE MICROSATS FROM WA5QGD FORT WORTH,TX January 3, 2013 BID: ORB13003.D TO ALL RADIO AMATEURS BT
Satellite: UO-11 Catalog number: 14781 Epoch time: 13003.23181110 Element set: 67 Inclination: 097.9272 deg RA of node: 066.7285 deg Eccentricity: 0.0010345 Arg of perigee: 105.1475 deg Mean anomaly: 255.0882 deg Mean motion: 14.80710514 rev/day Decay rate: 4.24e-06 rev/day^2 Epoch rev: 54952 Checksum: 272
Satellite: AO-16 Catalog number: 20439 Epoch time: 13003.82891333 Element set: 644 Inclination: 098.4556 deg RA of node: 307.8207 deg Eccentricity: 0.0009709 Arg of perigee: 286.2649 deg Mean anomaly: 127.1536 deg Mean motion: 14.32126573 rev/day Decay rate: 8.9e-07 rev/day^2 Epoch rev: 19871 Checksum: 322
Satellite: LO-19 Catalog number: 20442 Epoch time: 13003.82160299 Element set: 576 Inclination: 098.4235 deg RA of node: 310.1350 deg Eccentricity: 0.0010695 Arg of perigee: 275.9381 deg Mean anomaly: 136.7230 deg Mean motion: 14.32341047 rev/day Decay rate: 1.03e-06 rev/day^2 Epoch rev: 19890 Checksum: 276
Satellite: AO-27 Catalog number: 22825 Epoch time: 13003.85776951 Element set: 282 Inclination: 098.6011 deg RA of node: 309.7849 deg Eccentricity: 0.0009236 Arg of perigee: 056.5035 deg Mean anomaly: 337.2789 deg Mean motion: 14.29522853 rev/day Decay rate: 6.1e-07 rev/day^2 Epoch rev: 515 Checksum: 313
Satellite: IO-26 Catalog number: 22826 Epoch time: 13002.84506921 Element set: 36 Inclination: 098.5950 deg RA of node: 309.1078 deg Eccentricity: 0.0009698 Arg of perigee: 052.8907 deg Mean anomaly: 006.1700 deg Mean motion: 14.29802272 rev/day Decay rate: 9.4e-07 rev/day^2 Epoch rev: 513 Checksum: 289
Satellite: GO-32 Catalog number: 25397 Epoch time: 13003.82168743 Element set: 964 Inclination: 098.3904 deg RA of node: 338.9309 deg Eccentricity: 0.0002219 Arg of perigee: 064.5387 deg Mean anomaly: 295.6025 deg Mean motion: 14.23314954 rev/day Decay rate: 7.1e-07 rev/day^2 Epoch rev: 75256 Checksum: 320
Satellite: NO-44 Catalog number: 26931 Epoch time: 13002.88506654 Element set: 226 Inclination: 067.0539 deg RA of node: 325.6231 deg Eccentricity: 0.0004686 Arg of perigee: 261.4100 deg Mean anomaly: 098.6469 deg Mean motion: 14.29876290 rev/day Decay rate: 2.91e-06 rev/day^2 Epoch rev: 58779 Checksum: 325
Satellite: SO-50 Catalog number: 27607 Epoch time: 13003.44666217 Element set: 957 Inclination: 064.5584 deg RA of node: 045.5871 deg Eccentricity: 0.0066658 Arg of perigee: 207.0235 deg Mean anomaly: 152.7368 deg Mean motion: 14.72712509 rev/day Decay rate: 5.49e-06 rev/day^2 Epoch rev: 53945 Checksum: 327
Satellite: CO-55 Catalog number: 27844 Epoch time: 13003.66933256 Element set: 547 Inclination: 098.7031 deg RA of node: 015.1358 deg Eccentricity: 0.0009617 Arg of perigee: 010.6372 deg Mean anomaly: 053.3226 deg Mean motion: 14.21139156 rev/day Decay rate: 2.38e-06 rev/day^2 Epoch rev: 49336 Checksum: 293
Satellite: CO-57 Catalog number: 27848 Epoch time: 13002.01788780 Element set: 494 Inclination: 098.7114 deg RA of node: 012.9355 deg Eccentricity: 0.0009696 Arg of perigee: 021.1356 deg Mean anomaly: 037.3196 deg Mean motion: 14.20874686 rev/day Decay rate: 1.88e-06 rev/day^2 Epoch rev: 49306 Checksum: 330
Satellite: AO-51 Catalog number: 28375 Epoch time: 13003.89155755 Element set: 454 Inclination: 098.1762 deg RA of node: 326.1541 deg Eccentricity: 0.0083310 Arg of perigee: 152.5761 deg Mean anomaly: 207.9855 deg Mean motion: 14.41051314 rev/day Decay rate: 1.22e-06 rev/day^2 Epoch rev: 44767 Checksum: 296
Satellite: CP3 Catalog number: 31129 Epoch time: 13003.58215116 Element set: 356 Inclination: 097.8878 deg RA of node: 005.6358 deg Eccentricity: 0.0099517 Arg of perigee: 219.3463 deg Mean anomaly: 140.0476 deg Mean motion: 14.53411417 rev/day Decay rate: 7.06e-06 rev/day^2 Epoch rev: 30308 Checksum: 291
Satellite: CO-65 Catalog number: 32785 Epoch time: 13003.76300956 Element set: 515 Inclination: 097.7758 deg RA of node: 065.8352 deg Eccentricity: 0.0015885 Arg of perigee: 124.6737 deg Mean anomaly: 355.5051 deg Mean motion: 14.83497314 rev/day Decay rate: 1.055e-05 rev/day^2 Epoch rev: 25349 Checksum: 330
Satellite: PRISM Catalog number: 33493 Epoch time: 13003.79510753 Element set: 409 Inclination: 098.1944 deg RA of node: 155.6433 deg Eccentricity: 0.0018620 Arg of perigee: 009.8458 deg Mean anomaly: 350.3127 deg Mean motion: 14.85052642 rev/day Decay rate: 1.914e-05 rev/day^2 Epoch rev: 21351 Checksum: 285
Satellite: SOHLA-1 Catalog number: 33496 Epoch time: 13003.85672145 Element set: 933 Inclination: 098.1201 deg RA of node: 120.4938 deg Eccentricity: 0.0007961 Arg of perigee: 121.5576 deg Mean anomaly: 024.6105 deg Mean motion: 14.70155929 rev/day Decay rate: 3.30e-06 rev/day^2 Epoch rev: 21172 Checksum: 274
Satellite: SO-67 Catalog number: 35870 Epoch time: 13003.81204610 Element set: 665 Inclination: 097.2113 deg RA of node: 038.4592 deg Eccentricity: 0.0002463 Arg of perigee: 139.8633 deg Mean anomaly: 306.2897 deg Mean motion: 15.25587254 rev/day Decay rate: 3.293e-05 rev/day^2 Epoch rev: 18318 Checksum: 310
Satellite: TISAT-1 Catalog number: 36799 Epoch time: 13003.75734559 Element set: 681 Inclination: 098.0480 deg RA of node: 087.4792 deg Eccentricity: 0.0013642 Arg of perigee: 240.5446 deg Mean anomaly: 119.4398 deg Mean motion: 14.82712858 rev/day Decay rate: 1.329e-05 rev/day^2 Epoch rev: 13420 Checksum: 324
Satellite: STUDSAT Catalog number: 36801 Epoch time: 13002.34238803 Element set: 560 Inclination: 098.0566 deg RA of node: 087.8726 deg Eccentricity: 0.0011546 Arg of perigee: 227.9970 deg Mean anomaly: 132.0263 deg Mean motion: 14.86469926 rev/day Decay rate: 3.973e-05 rev/day^2 Epoch rev: 13408 Checksum: 309
Satellite: FO-69 Catalog number: 37227 Epoch time: 13003.48865215 Element set: 0031 Inclination: 071.9701 deg RA of node: 229.8804 deg Eccentricity: 0.0018094 Arg of perigee: 302.8977 deg Mean anomaly: 057.0445 deg Mean motion: 14.77327512 rev/day Decay rate: 3.45e-06 rev/day^2 Epoch rev: 00458 Checksum: 305
Satellite: FO-70 Catalog number: 37380 Epoch time: 13003.25745019 Element set: 0029 Inclination: 071.9739 deg RA of node: 231.2059 deg Eccentricity: 0.0018548 Arg of perigee: 300.3984 deg Mean anomaly: 059.5344 deg Mean motion: 14.77070463 rev/day Decay rate: 2.82e-06 rev/day^2 Epoch rev: 00462 Checksum: 293
Satellite: ALMASAT-1 Catalog number: 38078 Epoch time: 13003.80750098 Element set: 881 Inclination: 069.4781 deg RA of node: 220.1839 deg Eccentricity: 0.0725209 Arg of perigee: 355.9336 deg Mean anomaly: 003.6032 deg Mean motion: 14.17617966 rev/day Decay rate: 1.8363e-04 rev/day^2 Epoch rev: 4589 Checksum: 324
Satellite: XATCOBEO Catalog number: 38082 Epoch time: 13003.83251416 Element set: 820 Inclination: 069.4788 deg RA of node: 209.5478 deg Eccentricity: 0.0653043 Arg of perigee: 350.0779 deg Mean anomaly: 008.7893 deg Mean motion: 14.36611818 rev/day Decay rate: 4.4337e-04 rev/day^2 Epoch rev: 4618 Checksum: 318
/EX SB KEPS @ AMSAT $ORB13003.W Orbital Elements 13003.WEATHER
HR AMSAT ORBITAL ELEMENTS FOR WEATHER SATELLITES FROM WA5QGD FORT WORTH,TX January 3, 2013 BID: ORB13003.W TO ALL RADIO AMATEURS BT
Satellite: NOAA-10 Catalog number: 16969 Epoch time: 13003.57503162 Element set: 197 Inclination: 098.5632 deg RA of node: 034.8657 deg Eccentricity: 0.0012093 Arg of perigee: 013.3858 deg Mean anomaly: 149.5997 deg Mean motion: 14.27605814 rev/day Decay rate: 9.0e-07 rev/day^2 Epoch rev: 36845 Checksum: 322
Satellite: NOAA-11 Catalog number: 19531 Epoch time: 13003.48503568 Element set: 190 Inclination: 098.7226 deg RA of node: 090.3331 deg Eccentricity: 0.0011139 Arg of perigee: 017.9933 deg Mean anomaly: 051.3086 deg Mean motion: 14.14998264 rev/day Decay rate: -5.2e-07 rev/day^2 Epoch rev: 25283 Checksum: 287
